timestamp,wind_dir_avg,wind_spd_max_dir,wind_spd_avg,wind_spd_gust,battery_voltage,lat,long
2017-11-09 00:00:00+00:00,78.0,72.0,7.41,9.93,,47.59359,-54.27349
2017-11-09 00:10:00+00:00,78.0,88.0,8.29,9.95,,47.59359,-54.27349
2017-11-09 00:20:00+00:00,78.0,77.0,9.25,11.06,,47.59359,-54.27349
2017-11-09 00:30:00+00:00,75.0,76.0,10.87,12.25,,47.59359,-54.27349
2017-11-09 00:40:00+00:00,78.0,78.0,10.17,11.11,,47.59359,-54.27349
2017-11-09 00:50:00+00:00,76.0,75.0,10.18,11.94,,47.59359,-54.27349
2017-11-09 01:00:00+00:00,82.0,83.0,12.22,14.71,,47.59359,-54.27349
2017-11-09 01:10:00+00:00,77.0,76.0,10.45,13.31,,47.59359,-54.27349
2017-11-09 01:20:00+00:00,70.0,73.0,10.87,12.49,,47.59359,-54.27349
2017-11-09 01:30:00+00:00,74.0,75.0,10.62,12.89,,47.59359,-54.27349
2017-11-09 01:40:00+00:00,76.0,85.0,10.5,11.64,,47.59359,-54.27349
2017-11-09 01:50:00+00:00,84.0,78.0,9.27,11.79,,47.59359,-54.27349
2017-11-09 02:00:00+00:00,80.0,80.0,9.36,10.49,,47.59359,-54.27349
2017-11-09 02:10:00+00:00,86.0,85.0,8.94,10.47,,47.59359,-54.27349
2017-11-09 02:20:00+00:00,83.0,78.0,9.29,11.17,,47.59359,-54.27349
2017-11-09 02:30:00+00:00,73.0,72.0,10.48,11.89,,47.59359,-54.27349
2017-11-09 02:40:00+00:00,76.0,79.0,8.39,9.24,,47.59359,-54.27349
2017-11-09 02:50:00+00:00,73.0,65.0,9.59,12.19,,47.59359,-54.27349
2017-11-09 03:00:00+00:00,61.0,60.0,12.98,15.92,,47.59359,-54.27349
2017-11-09 03:10:00+00:00,72.0,75.0,13.54,16.49,,47.59359,-54.27349
2017-11-09 03:20:00+00:00,82.0,84.0,12.6,14.4,,47.59359,-54.27349
2017-11-09 03:30:00+00:00,76.0,73.0,12.4,14.08,,47.59359,-54.27349
2017-11-09 03:40:00+00:00,71.0,76.0,12.23,13.86,,47.59359,-54.27349
2017-11-09 03:50:00+00:00,69.0,66.0,12.05,13.87,,47.59359,-54.27349
2017-11-09 04:00:00+00:00,65.0,63.0,12.08,14.54,,47.59359,-54.27349
2017-11-09 04:10:00+00:00,67.0,67.0,12.57,17.19,,47.59359,-54.27349
2017-11-09 04:20:00+00:00,71.0,70.0,12.66,15.49,,47.59359,-54.27349
2017-11-09 04:30:00+00:00,67.0,69.0,11.53,13.27,,47.59359,-54.27349
2017-11-09 04:40:00+00:00,61.0,68.0,13.54,16.07,,47.59359,-54.27349
2017-11-09 04:50:00+00:00,56.0,56.0,11.47,13.23,,47.59359,-54.27349
2017-11-09 05:00:00+00:00,63.0,67.0,12.43,13.96,,47.59359,-54.27349
2017-11-09 05:10:00+00:00,55.0,57.0,12.58,14.46,,47.59359,-54.27349
2017-11-09 05:20:00+00:00,56.0,52.0,12.44,13.92,,47.59359,-54.27349
2017-11-09 05:30:00+00:00,57.0,58.0,12.16,14.2,,47.59359,-54.27349
2017-11-09 05:40:00+00:00,61.0,65.0,11.89,14.3,,47.59359,-54.27349
2017-11-09 05:50:00+00:00,65.0,69.0,12.0,13.95,,47.59359,-54.27349
2017-11-09 06:00:00+00:00,69.0,71.0,11.79,13.56,,47.59359,-54.27349
2017-11-09 06:10:00+00:00,57.0,57.0,11.94,13.72,,47.59359,-54.27349
2017-11-09 06:20:00+00:00,59.0,57.0,11.75,13.69,,47.59359,-54.27349
2017-11-09 06:30:00+00:00,58.0,61.0,12.8,14.86,,47.59359,-54.27349
2017-11-09 06:40:00+00:00,64.0,71.0,11.73,13.01,,47.59359,-54.27349
2017-11-09 06:50:00+00:00,59.0,59.0,12.87,15.12,,47.59359,-54.27349
2017-11-09 07:00:00+00:00,58.0,62.0,11.73,13.4,,47.59359,-54.27349
2017-11-09 07:10:00+00:00,51.0,50.0,12.74,15.58,,47.59359,-54.27349
2017-11-09 07:20:00+00:00,52.0,51.0,13.82,16.5,,47.59359,-54.27349
2017-11-09 07:30:00+00:00,53.0,53.0,12.59,14.54,,47.59359,-54.27349
2017-11-09 07:40:00+00:00,54.0,56.0,12.95,16.02,,47.59359,-54.27349
2017-11-09 07:50:00+00:00,53.0,57.0,13.64,16.51,,47.59359,-54.27349
2017-11-09 08:00:00+00:00,59.0,56.0,12.69,14.65,,47.59359,-54.27349
2017-11-09 08:10:00+00:00,60.0,58.0,13.21,15.83,,47.59359,-54.27349
2017-11-09 08:20:00+00:00,55.0,59.0,13.65,17.32,,47.59359,-54.27349
2017-11-09 08:30:00+00:00,61.0,64.0,11.53,14.53,,47.59359,-54.27349
2017-11-09 08:40:00+00:00,60.0,65.0,12.66,15.4,,47.59359,-54.27349
2017-11-09 08:50:00+00:00,59.0,55.0,12.86,16.59,,47.59359,-54.27349
2017-11-09 09:00:00+00:00,60.0,56.0,12.5,17.39,,47.59359,-54.27349
2017-11-09 09:10:00+00:00,62.0,68.0,14.1,19.56,,47.59359,-54.27349
2017-11-09 09:20:00+00:00,65.0,66.0,14.15,18.03,,47.59359,-54.27349
2017-11-09 09:30:00+00:00,61.0,63.0,13.3,17.11,,47.59359,-54.27349
2017-11-09 09:40:00+00:00,66.0,67.0,14.0,17.27,,47.59359,-54.27349
2017-11-09 09:50:00+00:00,58.0,55.0,12.38,16.35,,47.59359,-54.27349
2017-11-09 10:00:00+00:00,58.0,64.0,14.1,17.91,,47.59359,-54.27349
2017-11-09 10:10:00+00:00,59.0,57.0,11.57,13.36,,47.59359,-54.27349
2017-11-09 10:20:00+00:00,55.0,64.0,14.5,18.67,,47.59359,-54.27349
2017-11-09 10:30:00+00:00,58.0,62.0,12.84,14.47,,47.59359,-54.27349
2017-11-09 10:40:00+00:00,63.0,65.0,13.48,16.83,,47.59359,-54.27349
2017-11-09 10:50:00+00:00,61.0,70.0,14.12,16.12,,47.59359,-54.27349
2017-11-09 11:00:00+00:00,57.0,63.0,12.75,15.92,,47.59359,-54.27349
2017-11-09 11:10:00+00:00,60.0,58.0,13.22,15.95,,47.59359,-54.27349
2017-11-09 11:20:00+00:00,54.0,54.0,14.21,16.48,,47.59359,-54.27349
2017-11-09 11:30:00+00:00,56.0,53.0,12.81,16.61,,47.59359,-54.27349
2017-11-09 11:40:00+00:00,57.0,59.0,14.75,19.7,,47.59359,-54.27349
2017-11-09 11:50:00+00:00,54.0,57.0,13.15,16.54,,47.59359,-54.27349
2017-11-09 12:00:00+00:00,61.0,66.0,14.1,18.12,,47.59359,-54.27349
2017-11-09 12:10:00+00:00,64.0,68.0,13.85,16.88,,47.59359,-54.27349
2017-11-09 12:20:00+00:00,64.0,67.0,14.92,17.93,,47.59359,-54.27349
2017-11-09 12:30:00+00:00,59.0,61.0,12.64,14.79,,47.59359,-54.27349
2017-11-09 12:40:00+00:00,52.0,54.0,12.6,15.65,,47.59359,-54.27349
2017-11-09 12:50:00+00:00,50.0,53.0,13.78,15.62,,47.59359,-54.27349
2017-11-09 13:00:00+00:00,52.0,54.0,14.12,16.22,,47.59359,-54.27349
2017-11-09 13:10:00+00:00,55.0,55.0,13.97,17.03,,47.59359,-54.27349
2017-11-09 13:20:00+00:00,58.0,62.0,15.3,18.85,,47.59359,-54.27349
2017-11-09 13:30:00+00:00,52.0,55.0,15.2,17.75,,47.59359,-54.27349
2017-11-09 13:40:00+00:00,59.0,66.0,14.11,18.05,,47.59359,-54.27349
2017-11-09 13:50:00+00:00,51.0,59.0,14.26,17.16,,47.59359,-54.27349
2017-11-09 14:00:00+00:00,51.0,52.0,12.77,15.16,,47.59359,-54.27349
2017-11-09 14:10:00+00:00,49.0,50.0,14.24,16.11,,47.59359,-54.27349
2017-11-09 14:20:00+00:00,47.0,53.0,15.6,18.36,,47.59359,-54.27349
2017-11-09 14:30:00+00:00,56.0,61.0,14.68,17.49,,47.59359,-54.27349
2017-11-09 14:40:00+00:00,50.0,55.0,12.11,14.0,,47.59359,-54.27349
2017-11-09 14:50:00+00:00,48.0,45.0,11.05,14.29,,47.59359,-54.27349
2017-11-09 15:00:00+00:00,52.0,52.0,13.73,15.76,,47.59359,-54.27349
2017-11-09 15:10:00+00:00,52.0,58.0,13.37,15.68,,47.59359,-54.27349
2017-11-09 15:20:00+00:00,54.0,59.0,13.68,16.38,,47.59359,-54.27349
2017-11-09 15:30:00+00:00,56.0,58.0,14.43,17.48,,47.59359,-54.27349
2017-11-09 15:40:00+00:00,54.0,52.0,13.48,15.33,,47.59359,-54.27349
2017-11-09 15:50:00+00:00,52.0,47.0,13.31,15.42,,47.59359,-54.27349
2017-11-09 16:00:00+00:00,59.0,54.0,12.89,15.24,,47.59359,-54.27349
2017-11-09 16:10:00+00:00,52.0,53.0,13.41,15.47,,47.59359,-54.27349
2017-11-09 16:20:00+00:00,44.0,47.0,13.36,14.82,,47.59359,-54.27349
2017-11-09 16:30:00+00:00,47.0,48.0,11.44,12.78,,47.59359,-54.27349
2017-11-09 16:40:00+00:00,47.0,47.0,11.14,12.81,,47.59359,-54.27349
2017-11-09 16:50:00+00:00,44.0,40.0,11.03,14.76,,47.59359,-54.27349
2017-11-09 17:00:00+00:00,48.0,62.0,12.6,15.24,,47.59359,-54.27349
2017-11-09 17:10:00+00:00,47.0,52.0,11.48,13.35,,47.59359,-54.27349
2017-11-09 17:20:00+00:00,40.0,39.0,12.99,14.53,,47.59359,-54.27349
2017-11-09 17:30:00+00:00,47.0,50.0,13.56,14.97,,47.59359,-54.27349
2017-11-09 17:40:00+00:00,40.0,32.0,13.4,15.85,,47.59359,-54.27349
2017-11-09 17:50:00+00:00,39.0,40.0,12.61,14.25,,47.59359,-54.27349
2017-11-09 18:00:00+00:00,40.0,47.0,12.31,14.19,,47.59359,-54.27349
2017-11-09 18:10:00+00:00,39.0,40.0,12.93,14.56,,47.59359,-54.27349
2017-11-09 18:20:00+00:00,45.0,44.0,12.22,14.16,,47.59359,-54.27349
2017-11-09 18:30:00+00:00,34.0,30.0,11.4,12.78,,47.59359,-54.27349
2017-11-09 18:40:00+00:00,39.0,41.0,11.27,12.98,,47.59359,-54.27349
2017-11-09 18:50:00+00:00,39.0,40.0,10.77,12.69,,47.59359,-54.27349
2017-11-09 19:00:00+00:00,34.0,36.0,10.53,12.28,,47.59359,-54.27349
2017-11-09 19:10:00+00:00,38.0,36.0,10.84,12.84,,47.59359,-54.27349
2017-11-09 19:20:00+00:00,37.0,42.0,10.59,12.91,,47.59359,-54.27349
2017-11-09 19:30:00+00:00,36.0,37.0,11.64,13.39,,47.59359,-54.27349
2017-11-09 19:40:00+00:00,40.0,38.0,10.51,11.79,,47.59359,-54.27349
2017-11-09 19:50:00+00:00,38.0,44.0,10.2,12.69,,47.59359,-54.27349
2017-11-09 20:00:00+00:00,35.0,42.0,10.57,13.03,,47.59359,-54.27349
2017-11-09 20:10:00+00:00,50.0,46.0,13.06,14.05,,47.59359,-54.27349
2017-11-09 20:20:00+00:00,50.0,49.0,13.61,14.81,,47.59359,-54.27349
2017-11-09 20:30:00+00:00,35.0,36.0,9.38,10.9,,47.59359,-54.27349
2017-11-09 20:40:00+00:00,34.0,36.0,9.09,10.27,,47.59359,-54.27349
2017-11-09 20:50:00+00:00,35.0,36.0,11.1,12.38,,47.59359,-54.27349
2017-11-09 21:00:00+00:00,32.0,28.0,10.45,12.26,,47.59359,-54.27349
2017-11-09 21:10:00+00:00,29.0,27.0,9.73,12.17,,47.59359,-54.27349
2017-11-09 21:20:00+00:00,40.0,44.0,10.43,12.33,,47.59359,-54.27349
2017-11-09 21:30:00+00:00,38.0,38.0,9.52,11.5,,47.59359,-54.27349
2017-11-09 21:40:00+00:00,37.0,38.0,9.01,10.52,,47.59359,-54.27349
2017-11-09 21:50:00+00:00,26.0,27.0,9.57,10.64,,47.59359,-54.27349
2017-11-09 22:00:00+00:00,32.0,28.0,10.05,12.19,,47.59359,-54.27349
2017-11-09 22:10:00+00:00,43.0,51.0,9.64,11.85,,47.59359,-54.27349
2017-11-09 22:20:00+00:00,28.0,24.0,11.17,12.4,,47.59359,-54.27349
2017-11-09 22:30:00+00:00,32.0,36.0,10.12,11.9,,47.59359,-54.27349
2017-11-09 22:40:00+00:00,30.0,33.0,9.75,11.03,,47.59359,-54.27349
2017-11-09 22:50:00+00:00,32.0,32.0,9.3,10.62,,47.59359,-54.27349
2017-11-09 23:00:00+00:00,39.0,38.0,9.63,10.74,,47.59359,-54.27349
2017-11-09 23:10:00+00:00,23.0,25.0,8.0,9.37,,47.59359,-54.27349
2017-11-09 23:20:00+00:00,35.0,30.0,8.64,10.85,,47.59359,-54.27349
2017-11-09 23:30:00+00:00,33.0,35.0,6.69,7.72,,47.59359,-54.27349
2017-11-09 23:40:00+00:00,30.0,30.0,7.0,7.9,,47.59359,-54.27349
2017-11-09 23:50:00+00:00,28.0,35.0,7.64,9.09,,47.59359,-54.27349
